"Period start","avg(HW err(1)/warn(2) (#))","avg(Visibility (m))","avg(Weather code (#))","avg(Precip intensity (mm/h))","min(HW err(1)/warn(2) (#))","max(HW err(1)/warn(2) (#))","std(HW err(1)/warn(2) (#))","med(HW err(1)/warn(2) (#))","min(Visibility (m))","max(Visibility (m))","std(Visibility (m))","med(Visibility (m))","min(Weather code (#))","max(Weather code (#))","std(Weather code (#))","med(Weather code (#))","min(Precip intensity (mm/h))","max(Precip intensity (mm/h))","std(Precip intensity (mm/h))","med(Precip intensity (mm/h))"
2016-09-30 00:00:00,2,40811,0,0.00,2,2,0,2,24940,50000,8199,43393,0,0,0,0,0.00,0.00,0.00,0.00
2016-09-30 00:10:00,2,35571,0,0.00,2,2,0,2,22784,50000,7864,33991,0,0,0,0,0.00,0.00,0.00,0.00
2016-09-30 00:20:00,2,41504,0,0.00,2,2,0,2,28452,50000,6685,40257,0,0,0,0,0.00,0.00,0.00,0.00
2016-09-30 00:30:00,2,42090,0,0.00,2,2,0,2,32596,50000,6546,44859,0,0,0,0,0.00,0.00,0.00,0.00
2016-09-30 00:40:00,2,38816,0,0.00,2,2,0,2,27652,50000,7621,40089,0,0,0,0,0.00,0.00,0.00,0.00
2016-09-30 00:50:00,2,37863,0,0.00,2,2,0,2,20645,50000,9280,37614,0,0,0,0,0.00,0.00,0.00,0.00
2016-09-30 01:00:00,2,42549,0,0.00,2,2,0,2,17939,50000,9515,44554,0,0,0,0,0.00,0.00,0.00,0.00
2016-09-30 01:10:00,2,37379,0,0.00,2,2,0,2,26840,46711,5229,38306,0,0,0,0,0.00,0.00,0.00,0.00
2016-09-30 01:20:00,2,41844,0,0.00,2,2,0,2,25986,50000,7778,41211,0,0,0,0,0.00,0.00,0.00,0.00
2016-09-30 01:30:00,2,36989,0,0.00,2,2,0,2,22573,50000,9169,35227,0,0,0,0,0.00,0.00,0.00,0.00
2016-09-30 01:40:00,2,36609,0,0.00,2,2,0,2,23636,50000,7761,37238,0,0,0,0,0.00,0.00,0.00,0.00
2016-09-30 01:50:00,2,40984,0,0.00,2,2,0,2,30919,50000,5810,39564,0,0,0,0,0.00,0.00,0.00,0.00
2016-09-30 02:00:00,2,34419,0,0.00,2,2,0,2,19049,50000,8142,34372,0,0,0,0,0.00,0.00,0.00,0.00
2016-09-30 02:10:00,2,36924,0,0.00,2,2,0,2,20599,47379,7514,38058,0,0,0,0,0.00,0.00,0.00,0.00
2016-09-30 02:20:00,2,42236,0,0.00,2,2,0,2,27230,50000,8075,44768,0,0,0,0,0.00,0.00,0.00,0.00
2016-09-30 02:30:00,2,42568,0,0.00,2,2,0,2,35496,50000,5137,40931,0,0,0,0,0.00,0.00,0.00,0.00
2016-09-30 02:40:00,2,45757,0,0.00,2,2,0,2,26865,50000,6854,49040,0,0,0,0,0.00,0.00,0.00,0.00
2016-09-30 02:50:00,2,40677,0,0.00,2,2,0,2,24299,50000,9382,41314,0,0,0,0,0.00,0.00,0.00,0.00
2016-09-30 03:00:00,2,41861,0,0.00,2,2,0,2,29091,50000,7491,44532,0,0,0,0,0.00,0.00,0.00,0.00
2016-09-30 03:10:00,2,44003,0,0.00,2,2,0,2,38755,50000,3982,45094,0,0,0,0,0.00,0.00,0.00,0.00
2016-09-30 03:20:00,2,41589,0,0.00,2,2,0,2,31996,50000,6911,38776,0,0,0,0,0.00,0.00,0.00,0.00
2016-09-30 03:30:00,2,41486,0,0.00,2,2,0,2,34356,50000,5177,40398,0,0,0,0,0.00,0.00,0.00,0.00
2016-09-30 03:40:00,2,42337,0,0.00,2,2,0,2,32799,48978,5456,42917,0,0,0,0,0.00,0.00,0.00,0.00
2016-09-30 03:50:00,2,41945,0,0.00,2,2,0,2,28249,50000,7419,43554,0,0,0,0,0.00,0.00,0.00,0.00
2016-09-30 04:00:00,2,46893,0,0.00,2,2,0,2,37238,50000,4810,50000,0,0,0,0,0.00,0.00,0.00,0.00
2016-09-30 04:10:00,2,45199,0,0.00,2,2,0,2,31556,50000,7091,49968,0,0,0,0,0.00,0.00,0.00,0.00
2016-09-30 04:20:00,2,44748,0,0.00,2,2,0,2,26837,50000,7469,50000,0,0,0,0,0.00,0.00,0.00,0.00
2016-09-30 04:30:00,2,47337,0,0.00,2,2,0,2,39799,50000,3323,49090,0,0,0,0,0.00,0.00,0.00,0.00
2016-09-30 04:40:00,2,48461,0,0.00,2,2,0,2,42097,50000,3079,50000,0,0,0,0,0.00,0.00,0.00,0.00
2016-09-30 04:50:00,2,47054,0,0.00,2,2,0,2,41846,50000,2961,47775,0,0,0,0,0.00,0.00,0.00,0.00
2016-09-30 05:00:00,2,49061,0,0.00,2,2,0,2,43700,50000,1871,50000,0,0,0,0,0.00,0.00,0.00,0.00
2016-09-30 05:10:00,2,48532,0,0.00,2,2,0,2,42999,50000,2257,50000,0,0,0,0,0.00,0.00,0.00,0.00
2016-09-30 05:20:00,2,45586,0,0.00,2,2,0,2,31568,50000,5968,49326,0,0,0,0,0.00,0.00,0.00,0.00
2016-09-30 05:30:00,2,49611,0,0.00,2,2,0,2,46138,50000,1158,50000,0,0,0,0,0.00,0.00,0.00,0.00
2016-09-30 05:40:00,2,49315,0,0.00,2,2,0,2,45608,50000,1394,50000,0,0,0,0,0.00,0.00,0.00,0.00
2016-09-30 05:50:00,2,46802,0,0.00,2,2,0,2,38874,50000,4149,49356,0,0,0,0,0.00,0.00,0.00,0.00
2016-09-30 06:00:00,2,48635,0,0.00,2,2,0,2,38131,50000,3523,50000,0,0,0,0,0.00,0.00,0.00,0.00
2016-09-30 06:10:00,2,49797,0,0.00,2,2,0,2,48626,50000,436,50000,0,0,0,0,0.00,0.00,0.00,0.00
2016-09-30 06:20:00,2,48623,0,0.00,2,2,0,2,41009,50000,2892,50000,0,0,0,0,0.00,0.00,0.00,0.00
2016-09-30 06:30:00,2,48105,0,0.00,2,2,0,2,40185,50000,3516,50000,0,0,0,0,0.00,0.00,0.00,0.00
2016-09-30 06:40:00,2,49675,0,0.00,2,2,0,2,46752,50000,974,50000,0,0,0,0,0.00,0.00,0.00,0.00
2016-09-30 06:50:00,2,49625,0,0.00,2,2,0,2,46248,50000,1126,50000,0,0,0,0,0.00,0.00,0.00,0.00
2016-09-30 07:00:00,2,47457,0,0.00,2,2,0,2,37854,50000,4140,50000,0,0,0,0,0.00,0.00,0.00,0.00
2016-09-30 07:10:00,2,50000,0,0.00,2,2,0,2,50000,50000,0,50000,0,0,0,0,0.00,0.00,0.00,0.00
2016-09-30 07:20:00,2,49352,0,0.00,2,2,0,2,45462,50000,1409,50000,0,0,0,0,0.00,0.00,0.00,0.00
2016-09-30 07:30:00,2,50000,0,0.00,2,2,0,2,50000,50000,0,50000,0,0,0,0,0.00,0.00,0.00,0.00
2016-09-30 07:40:00,2,50000,0,0.00,2,2,0,2,50000,50000,0,50000,0,0,0,0,0.00,0.00,0.00,0.00
2016-09-30 07:50:00,2,49361,0,0.00,2,2,0,2,46065,50000,1259,50000,0,0,0,0,0.00,0.00,0.00,0.00
2016-09-30 08:00:00,2,49997,0,0.00,2,2,0,2,49966,50000,10,50000,0,0,0,0,0.00,0.00,0.00,0.00
2016-09-30 08:10:00,2,49793,0,0.00,2,2,0,2,47929,50000,621,50000,0,0,0,0,0.00,0.00,0.00,0.00
2016-09-30 08:20:00,2,50000,0,0.00,2,2,0,2,50000,50000,0,50000,0,0,0,0,0.00,0.00,0.00,0.00
2016-09-30 08:30:00,2,50000,0,0.00,2,2,0,2,50000,50000,0,50000,0,0,0,0,0.00,0.00,0.00,0.00
2016-09-30 08:40:00,2,50000,0,0.00,2,2,0,2,50000,50000,0,50000,0,0,0,0,0.00,0.00,0.00,0.00
2016-09-30 08:50:00,2,50000,0,0.00,2,2,0,2,50000,50000,0,50000,0,0,0,0,0.00,0.00,0.00,0.00
2016-09-30 09:00:00,2,50000,0,0.00,2,2,0,2,50000,50000,0,50000,0,0,0,0,0.00,0.00,0.00,0.00
2016-09-30 09:10:00,2,50000,0,0.00,2,2,0,2,50000,50000,0,50000,0,0,0,0,0.00,0.00,0.00,0.00
2016-09-30 09:20:00,2,50000,0,0.00,2,2,0,2,50000,50000,0,50000,0,0,0,0,0.00,0.00,0.00,0.00
2016-09-30 09:30:00,2,50000,0,0.00,2,2,0,2,50000,50000,0,50000,0,0,0,0,0.00,0.00,0.00,0.00
2016-09-30 09:40:00,2,50000,0,0.00,2,2,0,2,50000,50000,0,50000,0,0,0,0,0.00,0.00,0.00,0.00
2016-09-30 09:50:00,2,50000,0,0.00,2,2,0,2,50000,50000,0,50000,0,0,0,0,0.00,0.00,0.00,0.00
2016-09-30 10:00:00,2,50000,0,0.00,2,2,0,2,50000,50000,0,50000,0,0,0,0,0.00,0.00,0.00,0.00
2016-09-30 10:10:00,2,50000,0,0.00,2,2,0,2,50000,50000,0,50000,0,0,0,0,0.00,0.00,0.00,0.00
2016-09-30 10:20:00,2,50000,0,0.00,2,2,0,2,50000,50000,0,50000,0,0,0,0,0.00,0.00,0.00,0.00
2016-09-30 10:30:00,2,50000,0,0.00,2,2,0,2,50000,50000,0,50000,0,0,0,0,0.00,0.00,0.00,0.00
2016-09-30 10:40:00,2,50000,0,0.00,2,2,0,2,50000,50000,0,50000,0,0,0,0,0.00,0.00,0.00,0.00
2016-09-30 10:50:00,2,50000,0,0.00,2,2,0,2,50000,50000,0,50000,0,0,0,0,0.00,0.00,0.00,0.00
2016-09-30 11:00:00,2,50000,0,0.00,2,2,0,2,50000,50000,0,50000,0,0,0,0,0.00,0.00,0.00,0.00
2016-09-30 11:10:00,2,50000,0,0.00,2,2,0,2,50000,50000,0,50000,0,0,0,0,0.00,0.00,0.00,0.00
2016-09-30 11:20:00,2,50000,0,0.00,2,2,0,2,50000,50000,0,50000,0,0,0,0,0.00,0.00,0.00,0.00
2016-09-30 11:30:00,2,50000,0,0.00,2,2,0,2,50000,50000,0,50000,0,0,0,0,0.00,0.00,0.00,0.00
2016-09-30 11:40:00,2,50000,0,0.00,2,2,0,2,50000,50000,0,50000,0,0,0,0,0.00,0.00,0.00,0.00
2016-09-30 11:50:00,2,50000,0,0.00,2,2,0,2,50000,50000,0,50000,0,0,0,0,0.00,0.00,0.00,0.00
2016-09-30 12:00:00,2,50000,0,0.00,2,2,0,2,50000,50000,0,50000,0,0,0,0,0.00,0.00,0.00,0.00
2016-09-30 12:10:00,2,50000,0,0.00,2,2,0,2,50000,50000,0,50000,0,0,0,0,0.00,0.00,0.00,0.00
2016-09-30 12:20:00,2,50000,0,0.00,2,2,0,2,50000,50000,0,50000,0,0,0,0,0.00,0.00,0.00,0.00
2016-09-30 12:30:00,2,50000,0,0.00,2,2,0,2,50000,50000,0,50000,0,0,0,0,0.00,0.00,0.00,0.00
2016-09-30 12:40:00,2,50000,0,0.00,2,2,0,2,50000,50000,0,50000,0,0,0,0,0.00,0.00,0.00,0.00
2016-09-30 12:50:00,2,50000,0,0.00,2,2,0,2,50000,50000,0,50000,0,0,0,0,0.00,0.00,0.00,0.00
2016-09-30 13:00:00,2,50000,0,0.00,2,2,0,2,50000,50000,0,50000,0,0,0,0,0.00,0.00,0.00,0.00
2016-09-30 13:10:00,2,50000,0,0.00,2,2,0,2,50000,50000,0,50000,0,0,0,0,0.00,0.00,0.00,0.00
2016-09-30 13:20:00,2,50000,0,0.00,2,2,0,2,50000,50000,0,50000,0,0,0,0,0.00,0.00,0.00,0.00
2016-09-30 13:30:00,2,50000,0,0.00,2,2,0,2,50000,50000,0,50000,0,0,0,0,0.00,0.00,0.00,0.00
2016-09-30 13:40:00,2,50000,0,0.00,2,2,0,2,50000,50000,0,50000,0,0,0,0,0.00,0.00,0.00,0.00
2016-09-30 13:50:00,2,50000,0,0.00,2,2,0,2,50000,50000,0,50000,0,0,0,0,0.00,0.00,0.00,0.00
2016-09-30 14:00:00,2,50000,0,0.00,2,2,0,2,50000,50000,0,50000,0,0,0,0,0.00,0.00,0.00,0.00
2016-09-30 14:10:00,2,50000,0,0.00,2,2,0,2,50000,50000,0,50000,0,0,0,0,0.00,0.00,0.00,0.00
2016-09-30 14:20:00,2,50000,0,0.00,2,2,0,2,50000,50000,0,50000,0,0,0,0,0.00,0.00,0.00,0.00
2016-09-30 14:30:00,2,50000,0,0.00,2,2,0,2,50000,50000,0,50000,0,0,0,0,0.00,0.00,0.00,0.00
2016-09-30 14:40:00,2,50000,0,0.00,2,2,0,2,50000,50000,0,50000,0,0,0,0,0.00,0.00,0.00,0.00
2016-09-30 14:50:00,2,50000,0,0.00,2,2,0,2,50000,50000,0,50000,0,0,0,0,0.00,0.00,0.00,0.00
2016-09-30 15:00:00,2,50000,0,0.00,2,2,0,2,50000,50000,0,50000,0,0,0,0,0.00,0.00,0.00,0.00
2016-09-30 15:10:00,2,50000,0,0.00,2,2,0,2,50000,50000,0,50000,0,0,0,0,0.00,0.00,0.00,0.00
2016-09-30 15:20:00,2,50000,0,0.00,2,2,0,2,50000,50000,0,50000,0,0,0,0,0.00,0.00,0.00,0.00
2016-09-30 15:30:00,2,50000,0,0.00,2,2,0,2,50000,50000,0,50000,0,0,0,0,0.00,0.00,0.00,0.00
2016-09-30 15:40:00,2,50000,0,0.00,2,2,0,2,50000,50000,0,50000,0,0,0,0,0.00,0.00,0.00,0.00
2016-09-30 15:50:00,2,50000,0,0.00,2,2,0,2,50000,50000,0,50000,0,0,0,0,0.00,0.00,0.00,0.00
2016-09-30 16:00:00,2,50000,0,0.00,2,2,0,2,50000,50000,0,50000,0,0,0,0,0.00,0.00,0.00,0.00
2016-09-30 16:10:00,2,50000,0,0.00,2,2,0,2,50000,50000,0,50000,0,0,0,0,0.00,0.00,0.00,0.00
2016-09-30 16:20:00,2,50000,0,0.00,2,2,0,2,50000,50000,0,50000,0,0,0,0,0.00,0.00,0.00,0.00
2016-09-30 16:30:00,2,50000,0,0.00,2,2,0,2,50000,50000,0,50000,0,0,0,0,0.00,0.00,0.00,0.00
2016-09-30 16:40:00,2,50000,0,0.00,2,2,0,2,50000,50000,0,50000,0,0,0,0,0.00,0.00,0.00,0.00
2016-09-30 16:50:00,2,50000,0,0.00,2,2,0,2,50000,50000,0,50000,0,0,0,0,0.00,0.00,0.00,0.00
2016-09-30 17:00:00,2,50000,0,0.00,2,2,0,2,50000,50000,0,50000,0,0,0,0,0.00,0.00,0.00,0.00
2016-09-30 17:10:00,2,50000,0,0.00,2,2,0,2,50000,50000,0,50000,0,0,0,0,0.00,0.00,0.00,0.00
2016-09-30 17:20:00,2,50000,0,0.00,2,2,0,2,50000,50000,0,50000,0,0,0,0,0.00,0.00,0.00,0.00
2016-09-30 17:30:00,2,50000,0,0.00,2,2,0,2,50000,50000,0,50000,0,0,0,0,0.00,0.00,0.00,0.00
2016-09-30 17:40:00,2,50000,0,0.00,2,2,0,2,50000,50000,0,50000,0,0,0,0,0.00,0.00,0.00,0.00
2016-09-30 17:50:00,2,50000,0,0.00,2,2,0,2,50000,50000,0,50000,0,0,0,0,0.00,0.00,0.00,0.00
2016-09-30 18:00:00,2,50000,0,0.00,2,2,0,2,50000,50000,0,50000,0,0,0,0,0.00,0.00,0.00,0.00
2016-09-30 18:10:00,2,50000,0,0.00,2,2,0,2,50000,50000,0,50000,0,0,0,0,0.00,0.00,0.00,0.00
2016-09-30 18:20:00,2,50000,0,0.00,2,2,0,2,50000,50000,0,50000,0,0,0,0,0.00,0.00,0.00,0.00
2016-09-30 18:30:00,2,50000,0,0.00,2,2,0,2,50000,50000,0,50000,0,0,0,0,0.00,0.00,0.00,0.00
2016-09-30 18:40:00,2,50000,0,0.00,2,2,0,2,50000,50000,0,50000,0,0,0,0,0.00,0.00,0.00,0.00
2016-09-30 18:50:00,2,50000,0,0.00,2,2,0,2,50000,50000,0,50000,0,0,0,0,0.00,0.00,0.00,0.00
2016-09-30 19:00:00,2,50000,0,0.00,2,2,0,2,50000,50000,0,50000,0,0,0,0,0.00,0.00,0.00,0.00
2016-09-30 19:10:00,2,50000,0,0.00,2,2,0,2,50000,50000,0,50000,0,0,0,0,0.00,0.00,0.00,0.00
2016-09-30 19:20:00,2,50000,0,0.00,2,2,0,2,50000,50000,0,50000,0,0,0,0,0.00,0.00,0.00,0.00
2016-09-30 19:30:00,2,50000,0,0.00,2,2,0,2,50000,50000,0,50000,0,0,0,0,0.00,0.00,0.00,0.00
2016-09-30 19:40:00,2,50000,0,0.00,2,2,0,2,50000,50000,0,50000,0,0,0,0,0.00,0.00,0.00,0.00
2016-09-30 19:50:00,2,50000,0,0.00,2,2,0,2,50000,50000,0,50000,0,0,0,0,0.00,0.00,0.00,0.00
2016-09-30 20:00:00,2,50000,0,0.00,2,2,0,2,50000,50000,0,50000,0,0,0,0,0.00,0.00,0.00,0.00
2016-09-30 20:10:00,2,50000,0,0.00,2,2,0,2,50000,50000,0,50000,0,0,0,0,0.00,0.00,0.00,0.00
2016-09-30 20:20:00,2,50000,0,0.00,2,2,0,2,50000,50000,0,50000,0,0,0,0,0.00,0.00,0.00,0.00
2016-09-30 20:30:00,2,50000,0,0.00,2,2,0,2,50000,50000,0,50000,0,0,0,0,0.00,0.00,0.00,0.00
2016-09-30 20:40:00,2,50000,0,0.00,2,2,0,2,50000,50000,0,50000,0,0,0,0,0.00,0.00,0.00,0.00
2016-09-30 20:50:00,2,50000,0,0.00,2,2,0,2,50000,50000,0,50000,0,0,0,0,0.00,0.00,0.00,0.00
2016-09-30 21:00:00,2,50000,0,0.00,2,2,0,2,50000,50000,0,50000,0,0,0,0,0.00,0.00,0.00,0.00
2016-09-30 21:10:00,2,50000,0,0.00,2,2,0,2,50000,50000,0,50000,0,0,0,0,0.00,0.00,0.00,0.00
2016-09-30 21:20:00,2,50000,0,0.00,2,2,0,2,50000,50000,0,50000,0,0,0,0,0.00,0.00,0.00,0.00
2016-09-30 21:30:00,2,50000,0,0.00,2,2,0,2,50000,50000,0,50000,0,0,0,0,0.00,0.00,0.00,0.00
2016-09-30 21:40:00,2,50000,0,0.00,2,2,0,2,50000,50000,0,50000,0,0,0,0,0.00,0.00,0.00,0.00
2016-09-30 21:50:00,2,50000,0,0.00,2,2,0,2,50000,50000,0,50000,0,0,0,0,0.00,0.00,0.00,0.00
2016-09-30 22:00:00,2,50000,0,0.00,2,2,0,2,50000,50000,0,50000,0,0,0,0,0.00,0.00,0.00,0.00
2016-09-30 22:10:00,2,50000,0,0.00,2,2,0,2,50000,50000,0,50000,0,0,0,0,0.00,0.00,0.00,0.00
2016-09-30 22:20:00,2,50000,0,0.00,2,2,0,2,50000,50000,0,50000,0,0,0,0,0.00,0.00,0.00,0.00
2016-09-30 22:30:00,2,50000,0,0.00,2,2,0,2,50000,50000,0,50000,0,0,0,0,0.00,0.00,0.00,0.00
2016-09-30 22:40:00,2,50000,0,0.00,2,2,0,2,50000,50000,0,50000,0,0,0,0,0.00,0.00,0.00,0.00
2016-09-30 22:50:00,2,49894,0,0.00,2,2,0,2,48940,50000,318,50000,0,0,0,0,0.00,0.00,0.00,0.00
2016-09-30 23:00:00,2,50000,0,0.00,2,2,0,2,50000,50000,0,50000,0,0,0,0,0.00,0.00,0.00,0.00
2016-09-30 23:10:00,2,50000,0,0.00,2,2,0,2,50000,50000,0,50000,0,0,0,0,0.00,0.00,0.00,0.00
2016-09-30 23:20:00,2,50000,0,0.00,2,2,0,2,50000,50000,0,50000,0,0,0,0,0.00,0.00,0.00,0.00
2016-09-30 23:30:00,2,50000,0,0.00,2,2,0,2,50000,50000,0,50000,0,0,0,0,0.00,0.00,0.00,0.00
2016-09-30 23:40:00,2,50000,0,0.00,2,2,0,2,50000,50000,0,50000,0,0,0,0,0.00,0.00,0.00,0.00
2016-09-30 23:50:00,2,49969,0,0.00,2,2,0,2,49687,50000,94,50000,0,0,0,0,0.00,0.00,0.00,0.00
